GSAT0211 (PRN E02)

Last updated on Oct. 30, 2020, 5:57 a.m. UTC

1 41549U 16030A   20303.23167904 -.00000029  00000-0  00000-0 0  9995
2 41549  56.1940 278.2824 0004994 302.4399  57.4823  1.70474655 27602
UTC
Height (km)
Latitude
Longitude
Inclination
Orbital Period
UTC large
Height (km)
Speed (km/s)
/
Latitude / Longitude
Inclination (degrees)
Orbital Period (minutes)
Azimuth
Elevation
Range (km)
Doppler Factor
iOS Compass Heading
iOS Angle

Next 30 passes for location: Hong Kong

Rise time Rise Azimuth (degrees) Set time Set Azimuth (degrees) Duration Max altitude (degrees)

No matching passes for this satellites